Location: Caltech
(34.1382°N, 118.1253°W)
Time: 04:51:16
(UTC-07:00)

Cosmos 1943 Rocket - Visible Passes

Search period start: 30 September 2014 00:00
Search period end: 10 October 2014 00:00
Orbit: 811 x 846 km, 71.0° (Epoch: 29 September)

Date Brightness Start Highest point End Pass type
(mag) Time Alt. Az. Time Alt. Az. Time Alt. Az.
30 Sep 4.7 03:13:24 15° E 03:13:24 15° E 03:15:19 10° E visible
30 Sep 2.1 04:55:25 57° W 04:55:46 58° WSW 05:01:13 10° S visible
30 Sep 4.9 19:37:23 10° W 19:40:53 17° NW 19:44:24 10° NNW visible
01 Oct 4.0 04:41:06 17° S 04:41:06 17° S 04:42:16 10° S visible
01 Oct 4.8 19:17:51 10° WSW 19:21:45 19° WNW 19:25:40 10° NNW visible
02 Oct 4.8 18:58:24 10° WSW 19:02:37 21° WNW 19:06:53 10° N visible
